THOR AGENA D R/B, 2825

Orbit data source: Space-Track

THOR AGENA D R/B, 2825 is space debris in LEO originally from a launch on Wed, 31 May 1967 UTC launched from the Air Force Western Test Range (AFWTR). Debris objects in space refer to the collection of defunct objects orbiting the Earth. Examples of debris include non-operational satellites, rocket bodies, and fragments generated from explosions, collisions, or faulty payload assembly.

Loading next visibility...
Identifier
2825, 1967-053B
Orbit
LEO
Country
Flag of USUS
Related business
Manufacturer
LMSC
Mission
Spacecraft
Bus & Motor
AGENA D, Unknown motor
Mass
600 kg wet, 600 kg dry
Launch date (UTC)
1967-05-31 (59 years ago)
Launch vehicle
Unknown
Launch site
Air Force Western Test Range (AFWTR)
Object type
Payload
Rocket body
Debris
Shape & HBR
Unknown
Radar Cross Section
Large (>1 m²)

Expand to show TLE details & history
Last TLE update: 19 hours ago

TLE from 19 hours ago
0 THOR AGENA D R/B
1 02825U 67053B   25348.73227862  .00000082  00000-0  95777-4 0  9996
2 02825  69.9717 109.5350 0005073  31.1137 329.0269 13.97685061 66326
Epoch: 2025-12-14T17:34Z
TLE epoch observation values (Epoch: 2025-12-14T17:34:28.872Z)
Latitude
-0.00002°
Longitude
122.27372°
Altitude
900.968 km
Speed
7.403 km/s
True Right ascension
07h 18m 08s
True Declination
0° 00' 00"
Sunlit
Object was in full shadow at epoch
Visualization orbit readout
Latitude
Unknown
Longitude
Unknown
Altitude
Unknown
Speed
Unknown
Apparent Right ascension
Unknown
Apparent Declination
Unknown
Sunlit
N/A
Visualization observer readout
Local Sidereal Time
10:41:58
Azimuth
Unknown
Elevation
Unknown
Doppler factor
Unknown
Orbital elements
Apogee altitude
903.559 km
Perigee altitude
896.175 km
Semi-major axis
7,278.004 km
Eccentricity
0.00051
Inclination
69.9717°
RAAN
109.535°
Arg. of periapsis
31.1137°
True anomaly
328.99697°
Mean anomaly
329.0269°
Eccentric anomaly
329.01194°
Mean motion
3.49562 °/min
Orbital period
102.99 mins
BSTAR
0.000095777
Loading maneuver chart data...
Computing Atmospheric mass density...
Loading historical data...
Loading historical data...
Loading historical data...
Loading historical data...
Loading historical data...
Loading historical data...
Loading historical data...

Documentation

Showing up to 5 results
|